User: anonymous   Login
Location: Bonac
(42.8765°N, 0.9753°E)
Time: 19:51:10
(UTC+00:00)
Language:

ATLAS 5 CENTAUR R/B - Orbit

View from above orbital plane
View from above orbital plane
View from above satellite
View from above satellite

Ground track
Ground track

The orbit is defined by the following mean orbital elements,

1 31702U          26073.61696328 +.00000000 +00000-0 +91057-3 0 00000
2 31702  63.3110 163.5810 0499841  42.3190 321.5337 14.51731954    01
Epoch (UTC): 14 March 2026 14:48:25
Eccentricity: 0.0499841
inclination: 63.3110°
perigee height: 365 km
apogee height: 1075 km
right ascension of ascending node: 163.5810°
argument of perigee: 42.3190°
revolutions per day: 14.51731954
mean anomaly at epoch: 321.5337°

The dashed part of the orbit path shows where the satellite is in the earth's shadow,  

DLR